Weather observations for the past three days for
Andover, Aeroflex-Andover Airport
Metric (Imperial)
Date Time (edt) Wind (kph) Vis. (km) Weather Sky Cond. Temperature (ºC) Relative Humidity Wind Chill (°C) Heat Index (°C) Pressure Precipitation (cm)
Air Dwpt 6 hour altimeter (cm) sea level (mb) 1 hr 3 hr 6 hr
Max. Min.
21 12:54 SW 11 0.00 NULL NULL 32.8 20.6 49% 36 76.61 1020.2 0.03
21 11:54 Vrbl 6 0.00 NULL NULL 32.2 21.1 52% 35 76.66 1021.0 0.05
21 10:54 Vrbl 6 0.00 NULL NULL 31.1 21.1 55% 34 76.68 1021.1
21 09:54 Calm 0.00 NULL NULL 28.9 20.6 61% 31 76.71 1021.8
21 08:54 Calm 0.00 NULL NULL 26.1 20 69% 27 76.73 1022.2
21 07:54 Calm 0.00 NULL NULL 23.9 19.4 23.9 20 76% 24 76.76 1022.3
21 06:54 Calm 0.00 NULL NULL 21.7 20 90% 76.76 1022.4
21 05:54 Calm 0.00 NULL NULL 20.6 18.9 90% 76.76 1022.2
21 04:54 Calm 0.00 NULL NULL 20 18.9 93% 76.76 1022.3
21 03:54 Calm 0.00 NULL NULL 20.6 18.9 90% 76.76 1022.5
21 02:54 Calm 0.00 NULL NULL 20 18.9 93% 76.76 1022.3
21 01:54 Calm 0.00 NULL NULL 21.1 19.4 28.3 20.6 90% 76.78 1022.6
21 00:54 Calm 0.00 NULL NULL 21.7 20 90% 76.81 1022.9
20 23:54 Calm 0.00 NULL NULL 22.2 20.6 91% 76.81 1023.0
20 22:54 S 6 0.00 NULL NULL 22.2 20.6 91% 76.84 1023.3
20 21:54 Calm 0.00 NULL NULL 22.8 20 84% 76.81 1023.2
20 20:54 Calm 0.00 NULL NULL 24.4 20.6 79% 25 76.78 1022.6
20 19:54 Calm 0.00 NULL NULL 28.9 19.4 33.3 28.9 57% 30 76.76 1022.3 0.05
20 18:54 SW 7 0.00 NULL NULL 31.1 18.9 48% 32 76.76 1022.5
20 17:54 Vrbl 9 0.00 NULL NULL 32.2 18.9 45% 34 76.81 1023.0
20 16:54 SW 9 0.00 NULL NULL 32.8 18.3 42% 34 76.84 1023.4 0.05
20 15:54 S 17 0.00 NULL NULL 31.7 17.8 43% 32 76.89 1023.9 0.03
20 14:54 Vrbl 7 0.00 NULL NULL 32.8 17.8 41% 34 76.91 1024.3 0.03
20 13:54 SW 13 0.00 NULL NULL 32.8 17.8 33.3 23.3 41% 34 76.96 1024.9 0.03 0.13
20 12:54 Vrbl 6 0.00 NULL NULL 31.7 17.8 43% 32 76.99 1025.5 0.03
20 11:54 SW 7 0.00 NULL NULL 30.6 18.9 50% 32 77.04 1025.9
20 10:54 SW 7 0.00 NULL NULL 28.9 19.4 57% 30 77.04 1026.1 0.05 0.08
20 09:54 Calm 0.00 NULL NULL 26.7 18.9 62% 28 77.06 1026.4 0.03
20 08:54 Calm 0.00 NULL NULL 25.6 19.4 69% 27 77.06 1026.5
20 07:54 Calm 0.00 NULL NULL 23.3 18.9 23.3 18.3 76% 77.06 1026.6
20 06:54 Calm 0.00 NULL NULL 20.6 18.9 90% 77.04 1026.2
20 05:54 Calm 0.00 NULL NULL 18.3 17.8 97% 77.01 1025.9
20 04:54 Calm 0.00 NULL NULL 18.9 17.8 93% 77.01 1025.8
20 03:54 Calm 0.00 NULL NULL 18.9 17.8 93% 77.01 1025.6
20 02:54 Calm 0.00 NULL NULL 20 18.3 90% 76.99 1025.6
20 01:54 Calm 0.00 NULL NULL 20 17.8 27.8 20 87% 77.01 1025.9
20 00:54 Calm 0.00 NULL NULL 22.2 18.3 79% 77.04 1026.1
19 23:54 Calm 0.00 NULL NULL 22.2 20 87% 77.04 1026.3
19 22:54 Calm 0.00 NULL NULL 22.2 20.6 91% 77.06 1026.4
19 21:54 Calm 0.00 NULL NULL 23.3 21.1 88% 77.04 1026.0
19 20:54 Calm 0.00 NULL NULL 25 21.1 79% 26 76.99 1025.3
19 19:54 Calm 0.00 NULL NULL 27.8 21.1 33.3 27.8 67% 30 76.96 1025.2 0.05
19 18:54 Vrbl 7 0.00 NULL NULL 30.6 20 53% 33 76.99 1025.3
19 17:54 Vrbl 6 0.00 NULL NULL 31.1 20.6 54% 34 76.96 1025.0
19 16:54 Vrbl 7 0.00 NULL NULL 32.2 20 48% 34 76.96 1025.1 0.05
19 15:54 Vrbl 6 0.00 NULL NULL 33.3 19.4 44% 35 76.99 1025.4 0.03
19 14:54 Vrbl 9 0.00 NULL NULL 32.2 20 48% 34 77.01 1025.7 0.03
19 13:54 W 13 0.00 NULL NULL 32.2 20 32.2 22.2 48% 34 77.04 1026.0 0.03 0.13
19 12:54 Calm 0.00 NULL NULL 30.6 19.4 51% 32 77.06 1026.4 0.03
19 11:54 Vrbl 11 0.00 NULL NULL 30 20.6 57% 32 77.09 1026.8 0.03
19 10:54 SW 7 0.00 NULL NULL 28.9 20 59% 31 77.09 1026.9 0.03 0.05
19 09:54 Vrbl 6 0.00 NULL NULL 27.2 19.4 62% 29 77.11 1027.1 0.03
19 08:54 S 6 0.00 NULL NULL 25 18.9 69% 26 77.14 1027.5
19 07:54 Calm 0.00 NULL NULL 22.2 17.8 22.8 18.9 76% 77.11 1027.2
19 06:54 Calm 0.00 NULL NULL 20.6 17.2 81% 77.09 1026.7
19 05:54 Calm 0.00 NULL NULL 18.9 16.7 87% 77.06 1026.3
19 04:54 Calm 0.00 NULL NULL 19.4 16.7 84% 77.01 1025.8
19 03:54 Calm 0.00 NULL NULL 20 16.7 81% 76.99 1025.3
19 02:54 Calm 0.00 NULL NULL 20.6 18.3 87% 76.96 1025.0
19 01:54 S 6 0.00 NULL NULL 22.2 18.9 28.9 21.7 82% 76.94 1024.6
19 00:54 Calm 0.00 NULL NULL 22.8 20 84% 76.94 1024.6
18 23:54 Calm 0.00 NULL NULL 23.3 20.6 85% 76.91 1024.3
18 22:54 Calm 0.00 NULL NULL 22.8 21.1 90% 76.89 1024.1
18 21:54 Calm 0.00 NULL NULL 23.9 21.7 88% 24 76.86 1023.8
18 20:54 Calm 0.00 NULL NULL 25.6 22.2 82% 27 76.81 1022.9
18 19:54 Calm 0.00 NULL NULL 28.9 22.2 33.3 28.9 67% 32 76.76 1022.4 0.03
18 18:54 Calm 0.00 NULL NULL 30 21.7 61% 33 76.73 1022.1
18 17:54 Vrbl 7 0.00 NULL NULL 31.1 21.1 55% 34 76.71 1021.9
18 16:54 Vrbl 11 0.00 NULL NULL 31.7 21.1 53% 35 76.76 1022.3 0.03
18 15:54 SW 13 0.00 NULL NULL 31.1 21.1 55% 34 76.76 1022.4 0.03
18 14:54 SW 11 0.00 NULL NULL 32.2 21.7 54% 36 76.78 1022.7
18 13:54 SW 7 0.00 NULL NULL 32.2 20.6 32.2 23.3 50% 35 76.78 1022.6 0.1
Date Time (edt) Wind (kph) Vis. (km) Weather Sky Cond. Air Dwpt Max. Min. Relative Humidity Wind Chill (°C) Heat Index (°C) altimeter (cm) sea level (mb) 1 hr 3 hr 6 hr
6 hour
Temperature (ºC) Pressure Precipitation (cm)